SAS910 KEWR-EKCH

Flight info

Callsign SAS910
Flight time N/A
Altitude 37000
Route MERIT DCT HFD DCT PUT DCT BOS DCT BRADD N261B NICSO/M082F390 NATS BEXET/N0469F390 DCT NIBOG DCT MAC DCT SURAT DCT PETIL DCT TESPI
Aircraft A333/H-SDE1E3FGHIJ3J4J5M1P2RWXYZ/LB1D

Departure

Time N/A
Airport Newark Liberty International Airport (KEWR)

Arrival

Time 2026-04-25 06:52
Airport Copenhagen Kastrup Airport (EKCH)
Time Latitude Longitude Altitude Speed Heading
2026-04-25 05:31 55.51024 -4.73728 37201 ft 471 kts 82°
2026-04-25 05:31 55.51967 -4.62355 37204 ft 471 kts 82°
2026-04-25 05:32 55.52919 -4.51074 37158 ft 461 kts 81°
2026-04-25 05:32 55.53434 -4.45538 37088 ft 447 kts 81°
2026-04-25 05:32 55.53921 -4.40181 36841 ft 446 kts 81°
2026-04-25 05:32 55.54357 -4.34657 36516 ft 461 kts 82°
2026-04-25 05:33 55.54770 -4.29005 36210 ft 465 kts 82°
2026-04-25 05:33 55.55179 -4.23345 35922 ft 465 kts 82°
2026-04-25 05:33 55.55595 -4.17697 35628 ft 463 kts 82°
2026-04-25 05:33 55.56018 -4.12067 35341 ft 461 kts 82°
2026-04-25 05:34 55.56445 -4.06481 35043 ft 458 kts 82°
2026-04-25 05:34 55.56875 -4.00908 34771 ft 456 kts 82°
2026-04-25 05:34 55.57303 -3.95373 34670 ft 454 kts 82°
2026-04-25 05:34 55.57729 -3.89835 34800 ft 458 kts 82°
2026-04-25 05:35 55.58158 -3.84210 34929 ft 465 kts 82°
2026-04-25 05:35 55.58592 -3.78500 35070 ft 472 kts 82°
2026-04-25 05:35 55.59029 -3.72708 35306 ft 476 kts 82°
2026-04-25 05:35 55.59465 -3.66907 35677 ft 477 kts 82°
2026-04-25 05:36 55.59899 -3.61087 36103 ft 476 kts 82°
2026-04-25 05:36 55.60327 -3.55284 36540 ft 476 kts 82°
2026-04-25 05:36 55.60751 -3.49491 36970 ft 475 kts 82°
2026-04-25 05:36 55.61172 -3.43697 37376 ft 474 kts 82°
2026-04-25 05:37 55.61590 -3.37918 37812 ft 473 kts 82°
2026-04-25 05:37 55.62004 -3.32151 38222 ft 473 kts 81°
2026-04-25 05:37 55.62415 -3.26378 38550 ft 474 kts 81°
2026-04-25 05:37 55.62824 -3.20589 38932 ft 473 kts 81°
2026-04-25 05:38 55.63230 -3.14808 39168 ft 474 kts 81°
2026-04-25 05:38 55.64036 -3.03233 39212 ft 474 kts 81°
2026-04-25 05:39 55.64829 -2.91644 39213 ft 474 kts 82°
2026-04-25 05:39 55.65609 -2.80121 39219 ft 474 kts 82°
2026-04-25 05:40 55.66385 -2.68501 39227 ft 476 kts 81°
2026-04-25 05:40 55.67152 -2.56831 39222 ft 477 kts 81°
2026-04-25 05:41 55.67908 -2.45157 39220 ft 477 kts 82°
2026-04-25 05:41 55.68651 -2.33478 39223 ft 477 kts 82°
2026-04-25 05:42 55.69385 -2.21792 39225 ft 477 kts 81°
2026-04-25 05:42 55.70111 -2.10067 39219 ft 480 kts 81°
2026-04-25 05:43 55.70829 -1.98296 39213 ft 480 kts 82°
2026-04-25 05:43 55.71535 -1.86529 39213 ft 480 kts 82°
2026-04-25 05:44 55.72229 -1.74744 39217 ft 480 kts 82°
2026-04-25 05:44 55.72911 -1.62967 39218 ft 481 kts 82°
2026-04-25 05:45 55.73587 -1.51120 39215 ft 484 kts 82°
2026-04-25 05:45 55.74252 -1.39239 39214 ft 484 kts 82°
2026-04-25 05:46 55.74908 -1.27345 39211 ft 484 kts 82°
2026-04-25 05:46 55.75550 -1.15453 39211 ft 484 kts 82°
2026-04-25 05:47 55.76181 -1.03544 39209 ft 486 kts 82°
2026-04-25 05:47 55.76803 -0.91638 39208 ft 488 kts 82°
2026-04-25 05:48 55.77414 -0.79640 39206 ft 488 kts 82°
2026-04-25 05:48 55.78016 -0.67628 39205 ft 488 kts 82°
2026-04-25 05:49 55.78608 -0.55605 39203 ft 489 kts 82°
2026-04-25 05:49 55.79090 -0.45583 39206 ft 491 kts 82°
2026-04-25 05:50 55.79661 -0.33499 39199 ft 491 kts 82°
2026-04-25 05:50 55.80220 -0.21406 39199 ft 491 kts 83°
2026-04-25 05:51 55.80766 -0.09312 39197 ft 491 kts 83°
2026-04-25 05:51 55.81300 0.02785 39208 ft 491 kts 83°
2026-04-25 05:52 55.81828 0.14943 39200 ft 494 kts 83°
2026-04-25 05:52 55.82343 0.27128 39200 ft 494 kts 83°
2026-04-25 05:53 55.82846 0.39328 39198 ft 494 kts 83°
2026-04-25 05:53 55.83337 0.51530 39198 ft 494 kts 83°
2026-04-25 05:54 55.83819 0.63737 39200 ft 496 kts 83°
2026-04-25 05:54 55.84517 0.82146 39195 ft 498 kts 83°
2026-04-25 05:55 55.84969 0.94436 39194 ft 498 kts 83°
2026-04-25 05:55 55.85406 1.06644 39194 ft 498 kts 83°
2026-04-25 05:56 55.85834 1.18937 39195 ft 498 kts 83°
2026-04-25 05:56 55.86251 1.31272 39195 ft 500 kts 83°
2026-04-25 05:57 55.86657 1.43619 39192 ft 500 kts 83°
2026-04-25 05:57 55.87050 1.55976 39188 ft 500 kts 84°
2026-04-25 05:58 55.87428 1.68334 39186 ft 500 kts 84°
2026-04-25 05:58 55.87794 1.80704 39185 ft 501 kts 84°
2026-04-25 05:59 55.88151 1.93099 39184 ft 501 kts 84°
2026-04-25 05:59 55.88494 2.05502 39182 ft 501 kts 84°
2026-04-25 06:00 55.88827 2.17907 39183 ft 502 kts 84°
2026-04-25 06:00 55.89147 2.30328 39189 ft 502 kts 84°
2026-04-25 06:01 55.89454 2.42752 39178 ft 502 kts 84°
2026-04-25 06:01 55.89746 2.55177 39185 ft 502 kts 84°
2026-04-25 06:02 55.90028 2.67603 39173 ft 502 kts 84°
2026-04-25 06:02 55.90298 2.80029 39177 ft 502 kts 84°
2026-04-25 06:03 55.90553 2.92463 39175 ft 503 kts 84°
2026-04-25 06:03 55.90799 3.04927 39167 ft 503 kts 84°
2026-04-25 06:04 55.91032 3.17391 39154 ft 503 kts 84°
2026-04-25 06:04 55.91249 3.29763 39156 ft 503 kts 84°
2026-04-25 06:05 55.91454 3.42228 39159 ft 503 kts 84°
2026-04-25 06:05 55.91665 3.54707 39149 ft 503 kts 84°
2026-04-25 06:06 55.91923 3.67183 39147 ft 503 kts 84°
2026-04-25 06:06 55.92182 3.79653 39147 ft 504 kts 84°
2026-04-25 06:07 55.92421 3.92136 39147 ft 504 kts 84°
2026-04-25 06:07 55.92645 4.04618 39149 ft 504 kts 84°
2026-04-25 06:08 55.92854 4.17113 39146 ft 504 kts 84°
2026-04-25 06:08 55.93050 4.29626 39146 ft 505 kts 85°
2026-04-25 06:09 55.93234 4.42141 39132 ft 505 kts 85°
2026-04-25 06:09 55.93407 4.54670 39144 ft 505 kts 85°
2026-04-25 06:10 55.93567 4.67194 39133 ft 506 kts 85°
2026-04-25 06:10 55.93715 4.79737 39126 ft 506 kts 85°
2026-04-25 06:11 55.93849 4.92291 39127 ft 506 kts 85°
2026-04-25 06:11 55.93987 5.04850 39121 ft 506 kts 85°
2026-04-25 06:12 55.94158 5.17405 39121 ft 506 kts 85°
2026-04-25 06:12 55.94323 5.29963 39114 ft 506 kts 85°
2026-04-25 06:13 55.94475 5.42518 39116 ft 506 kts 85°
2026-04-25 06:14 55.94677 5.61345 39113 ft 506 kts 85°
2026-04-25 06:14 55.94799 5.73909 39116 ft 507 kts 85°
2026-04-25 06:15 55.94908 5.86495 39111 ft 508 kts 85°
2026-04-25 06:15 55.95002 5.99095 39098 ft 508 kts 85°
2026-04-25 06:16 55.95084 6.11689 39092 ft 508 kts 85°
2026-04-25 06:16 55.95153 6.24211 39108 ft 508 kts 85°
2026-04-25 06:17 55.95209 6.36818 39081 ft 508 kts 85°
2026-04-25 06:17 55.95253 6.49444 39080 ft 510 kts 86°
2026-04-25 06:18 55.95284 6.62082 39075 ft 509 kts 86°
2026-04-25 06:18 55.95302 6.74732 39075 ft 509 kts 86°
2026-04-25 06:19 55.95308 6.87380 39067 ft 510 kts 86°
2026-04-25 06:19 55.95300 7.00040 39064 ft 510 kts 86°
2026-04-25 06:20 55.95280 7.12711 39059 ft 511 kts 86°
2026-04-25 06:20 55.95246 7.25383 39059 ft 511 kts 86°
2026-04-25 06:21 55.95200 7.38047 39059 ft 511 kts 87°
2026-04-25 06:21 55.95140 7.50713 39047 ft 510 kts 87°
2026-04-25 06:22 55.95068 7.63381 39048 ft 510 kts 87°
2026-04-25 06:22 55.94983 7.76045 39043 ft 511 kts 87°
2026-04-25 06:23 55.94885 7.88719 39041 ft 511 kts 87°
2026-04-25 06:23 55.94773 8.01392 39035 ft 511 kts 88°
2026-04-25 06:24 55.94649 8.14059 39034 ft 510 kts 88°
2026-04-25 06:24 55.94511 8.26717 39031 ft 510 kts 88°
2026-04-25 06:25 55.94361 8.39375 39026 ft 511 kts 88°
2026-04-25 06:25 55.94196 8.52037 39042 ft 510 kts 88°
2026-04-25 06:26 55.94019 8.64698 39013 ft 511 kts 88°
2026-04-25 06:26 55.93830 8.77369 39008 ft 511 kts 88°
2026-04-25 06:27 55.93627 8.90044 39011 ft 511 kts 88°
2026-04-25 06:27 55.93410 9.02734 39014 ft 511 kts 89°
2026-04-25 06:28 55.93182 9.15411 39012 ft 512 kts 89°
2026-04-25 06:28 55.92939 9.28105 39010 ft 512 kts 89°
2026-04-25 06:28 55.92813 9.34455 38888 ft 513 kts 89°
2026-04-25 06:29 55.92685 9.40802 38650 ft 513 kts 89°
2026-04-25 06:29 55.92553 9.47075 38374 ft 514 kts 89°
2026-04-25 06:29 55.92417 9.53451 38080 ft 514 kts 89°
2026-04-25 06:29 55.92277 9.59815 37798 ft 514 kts 89°
2026-04-25 06:30 55.92135 9.66163 37502 ft 512 kts 89°
2026-04-25 06:30 55.91989 9.72511 36812 ft 512 kts 89°
2026-04-25 06:30 55.91840 9.78866 36044 ft 514 kts 89°
2026-04-25 06:30 55.91688 9.85243 35241 ft 516 kts 89°
2026-04-25 06:31 55.91531 9.91658 34380 ft 520 kts 89°
2026-04-25 06:31 55.91373 9.98114 33400 ft 524 kts 89°
2026-04-25 06:31 55.91207 10.04612 32375 ft 525 kts 89°
2026-04-25 06:31 55.91087 10.11121 31175 ft 524 kts 88°
2026-04-25 06:32 55.91004 10.17550 30224 ft 517 kts 88°
2026-04-25 06:32 55.90920 10.23936 29378 ft 515 kts 88°
2026-04-25 06:32 55.90827 10.30303 28509 ft 511 kts 88°
2026-04-25 06:32 55.90727 10.36595 27668 ft 505 kts 88°
2026-04-25 06:33 55.90622 10.42825 26842 ft 500 kts 89°
2026-04-25 06:33 55.90514 10.48977 26032 ft 494 kts 89°
2026-04-25 06:33 55.90404 10.55063 25274 ft 488 kts 89°
2026-04-25 06:33 55.90292 10.61074 24524 ft 483 kts 89°
2026-04-25 06:34 55.90177 10.67036 23784 ft 479 kts 89°
2026-04-25 06:34 55.90060 10.72937 22978 ft 475 kts 89°
2026-04-25 06:34 55.89941 10.78812 22087 ft 474 kts 89°
2026-04-25 06:34 55.89819 10.84659 21201 ft 469 kts 89°
2026-04-25 06:35 55.89696 10.90369 20554 ft 451 kts 89°
2026-04-25 06:35 55.89574 10.95887 19998 ft 442 kts 89°
2026-04-25 06:35 55.89455 11.01326 19441 ft 436 kts 89°
2026-04-25 06:35 55.89336 11.06626 18893 ft 431 kts 89°
2026-04-25 06:36 55.89213 11.11922 18372 ft 426 kts 89°
2026-04-25 06:36 55.89091 11.17141 17904 ft 418 kts 89°
2026-04-25 06:36 55.88969 11.22281 17373 ft 412 kts 89°
2026-04-25 06:36 55.88847 11.27346 16849 ft 407 kts 89°
2026-04-25 06:37 55.88724 11.32378 16329 ft 406 kts 89°
2026-04-25 06:37 55.88599 11.37381 15814 ft 404 kts 89°
2026-04-25 06:37 55.88473 11.42368 15281 ft 402 kts 89°
2026-04-25 06:37 55.88346 11.47319 14749 ft 398 kts 89°
2026-04-25 06:38 55.88216 11.52234 14227 ft 396 kts 89°
2026-04-25 06:38 55.88087 11.57105 13713 ft 392 kts 89°
2026-04-25 06:38 55.87957 11.61941 13144 ft 389 kts 89°
2026-04-25 06:38 55.87867 11.65186 12788 ft 387 kts 89°
2026-04-25 06:39 55.87735 11.69955 12290 ft 384 kts 89°
2026-04-25 06:39 55.87602 11.74678 11786 ft 381 kts 89°
2026-04-25 06:39 55.87468 11.79366 11283 ft 378 kts 89°
2026-04-25 06:39 55.87332 11.84019 10833 ft 372 kts 89°
2026-04-25 06:40 55.87197 11.88506 10723 ft 354 kts 89°
2026-04-25 06:40 55.87067 11.92786 10640 ft 338 kts 88°
2026-04-25 06:40 55.86942 11.96882 10479 ft 326 kts 88°
2026-04-25 06:40 55.86822 12.00810 10338 ft 317 kts 88°
2026-04-25 06:41 55.86704 12.04694 10045 ft 314 kts 88°
2026-04-25 06:41 55.86586 12.08575 9677 ft 314 kts 88°
2026-04-25 06:41 55.86466 12.12447 9314 ft 313 kts 88°
2026-04-25 06:41 55.86346 12.16296 8987 ft 310 kts 88°
2026-04-25 06:42 55.86225 12.20129 8651 ft 309 kts 88°
2026-04-25 06:42 55.86102 12.23930 8322 ft 307 kts 88°
2026-04-25 06:42 55.85981 12.27711 7980 ft 305 kts 88°
2026-04-25 06:42 55.85856 12.31478 7649 ft 305 kts 88°
2026-04-25 06:43 55.85732 12.35249 7315 ft 304 kts 88°
2026-04-25 06:43 55.85608 12.38987 6991 ft 302 kts 88°
2026-04-25 06:43 55.85482 12.42708 6644 ft 300 kts 88°
2026-04-25 06:43 55.85358 12.46417 6335 ft 300 kts 88°
2026-04-25 06:44 55.85232 12.50108 6006 ft 299 kts 88°
2026-04-25 06:44 55.85106 12.53788 5650 ft 296 kts 88°
2026-04-25 06:44 55.84981 12.57425 5325 ft 293 kts 89°
2026-04-25 06:44 55.84854 12.61003 5121 ft 285 kts 89°
2026-04-25 06:45 55.84728 12.64437 5035 ft 271 kts 89°
2026-04-25 06:45 55.84607 12.67722 4855 ft 264 kts 88°
2026-04-25 06:45 55.84490 12.71002 4468 ft 267 kts 89°
2026-04-25 06:45 55.84374 12.74257 4162 ft 260 kts 88°
2026-04-25 06:46 55.84025 12.77401 4003 ft 262 kts 111°
2026-04-25 06:46 55.83058 12.80158 4000 ft 264 kts 126°
2026-04-25 06:46 55.81926 12.82724 3984 ft 263 kts 129°
2026-04-25 06:46 55.80775 12.85251 3983 ft 263 kts 129°
2026-04-25 06:47 55.79525 12.87616 3984 ft 264 kts 144°
2026-04-25 06:47 55.77865 12.88749 3992 ft 253 kts 182°
2026-04-25 06:47 55.76263 12.88064 3985 ft 232 kts 217°
2026-04-25 06:47 55.75072 12.86387 3871 ft 210 kts 232°
2026-04-25 06:48 55.74051 12.84639 3739 ft 200 kts 231°
2026-04-25 06:48 55.73024 12.83041 3641 ft 191 kts 230°
2026-04-25 06:48 55.72029 12.81508 3369 ft 189 kts 229°
2026-04-25 06:48 55.71043 12.79976 2876 ft 188 kts 229°
2026-04-25 06:49 55.70066 12.78458 2407 ft 186 kts 230°
2026-04-25 06:49 55.69104 12.76958 1915 ft 183 kts 230°
2026-04-25 06:49 55.68158 12.75483 1557 ft 173 kts 229°
2026-04-25 06:49 55.67301 12.74153 1321 ft 160 kts 229°
2026-04-25 06:50 55.66499 12.72908 1100 ft 146 kts 230°
2026-04-25 06:50 55.65771 12.71775 902 ft 133 kts 230°
2026-04-25 06:50 55.65108 12.70745 707 ft 120 kts 231°
2026-04-25 06:50 55.64501 12.69799 565 ft 114 kts 230°
2026-04-25 06:51 55.63911 12.68880 404 ft 113 kts 229°
2026-04-25 06:51 55.63317 12.67959 241 ft 114 kts 230°
2026-04-25 06:51 55.62719 12.67045 108 ft 113 kts 229°
2026-04-25 06:51 55.62138 12.66140 29 ft 105 kts 227°
2026-04-25 06:52 55.61725 12.65489 27 ft 59 kts 221°
2026-04-25 06:52 55.61494 12.65131 27 ft 32 kts 221°
2026-04-25 06:52 55.61344 12.64888 28 ft 27 kts 229°
2026-04-25 06:52 55.61255 12.64609 28 ft 25 kts 250°
2026-04-25 06:53 55.61203 12.64334 27 ft 24 kts 251°
2026-04-25 06:53 55.61229 12.64113 27 ft 16 kts 330°
2026-04-25 06:53 55.61332 12.64170 28 ft 20 kts 34°
2026-04-25 06:53 55.61483 12.64343 28 ft 28 kts 32°
2026-04-25 06:54 55.61657 12.64543 28 ft 31 kts 33°
2026-04-25 06:54 55.61848 12.64762 28 ft 34 kts 33°
2026-04-25 06:54 55.62041 12.64983 28 ft 31 kts 33°
2026-04-25 06:54 55.62206 12.65171 28 ft 23 kts 27°
2026-04-25 06:55 55.62349 12.65202 28 ft 17 kts 359°
2026-04-25 06:55 55.62414 12.65198 28 ft 4 kts 355°
2026-04-25 06:55 55.62430 12.65169 28 ft 3 kts 291°
2026-04-25 06:55 55.62432 12.65109 28 ft 6 kts 270°
2026-04-25 06:56 55.62432 12.65066 28 ft 2 kts 269°
2026-04-25 06:56 55.62432 12.65057 28 ft 0 kts 269°